Terminal Aerodrome Forecast
Issued by NWS Brownsville, TX

Home | Current Version | Previous Version | Text Only | Print | Product List | Glossary On
Versions: 1 2 3 4 5 6 7 8 9 10 11 12 13 14 15 16 17 18 19
000
FTUS44 KBRO 210500
TAFHRL
TAF
KHRL 210522Z 2106/2206 00000KT P6SM VCSH SCT035
      TEMPO 2109/2112 4SM BR
     FM211400 VRB06KT P6SM VCSH SCT020 BKN150
     FM211800 08012KT P6SM VCTS SCT035CB BKN100
     FM212200 08009KT P6SM SCT035=

USA.gov is the U.S. government's official web portal to all federal, state and local government web resources and services.